Time,TemperatureF,DewpointF,PressureIn,WindDirection,WindDirectionDegrees,WindSpeedMPH,WindSpeedGustMPH,Humidity,HourlyPrecipIn,Conditions,Clouds,dailyrainin,SolarRadiationWatts/m^2,SoftwareType,DateUTC
2013-08-09 00:11:00,55.0,46.0,-100.00,NE,34,2.0,6.0,72,0.00,,,0.00,0.000000,,2013-08-09 06:11:00,
2013-08-09 00:21:00,55.0,46.0,-100.00,NE,34,2.0,6.0,72,0.00,,,0.00,0.000000,,2013-08-09 06:21:00,
2013-08-09 00:32:00,55.0,46.0,-100.00,NE,34,2.0,6.0,72,0.00,,,0.00,0.000000,,2013-08-09 06:32:00,
2013-08-09 00:43:00,55.0,46.0,-100.00,NE,34,2.0,6.0,72,0.00,,,0.00,0.000000,,2013-08-09 06:43:00,
2013-08-09 01:12:00,54.0,45.0,-100.00,NE,40,1.0,5.0,71,0.00,,,0.00,0.000000,,2013-08-09 07:12:00,
2013-08-09 01:21:00,54.0,45.0,-100.00,NE,40,1.0,5.0,71,0.00,,,0.00,0.000000,,2013-08-09 07:21:00,
2013-08-09 01:33:00,54.0,45.0,-100.00,NE,40,1.0,5.0,71,0.00,,,0.00,0.000000,,2013-08-09 07:33:00,
2013-08-09 01:43:00,54.0,45.0,-100.00,NE,40,1.0,5.0,71,0.00,,,0.00,0.000000,,2013-08-09 07:43:00,
2013-08-09 02:12:00,53.0,44.0,-100.00,NE,44,1.0,6.0,72,0.00,,,0.00,0.000000,,2013-08-09 08:12:00,
2013-08-09 02:21:00,53.0,44.0,-100.00,NE,44,1.0,6.0,72,0.00,,,0.00,0.000000,,2013-08-09 08:21:00,
2013-08-09 02:32:00,53.0,44.0,-100.00,NE,44,1.0,6.0,72,0.00,,,0.00,0.000000,,2013-08-09 08:32:00,
2013-08-09 02:43:00,53.0,44.0,-100.00,NE,44,1.0,6.0,72,0.00,,,0.00,0.000000,,2013-08-09 08:43:00,
2013-08-09 03:12:00,54.0,43.0,-100.00,NE,45,2.0,7.0,66,0.00,,,0.00,0.000000,,2013-08-09 09:12:00,
2013-08-09 03:22:00,54.0,43.0,-100.00,NE,45,2.0,7.0,66,0.00,,,0.00,0.000000,,2013-08-09 09:22:00,
2013-08-09 03:32:00,54.0,43.0,-100.00,NE,45,2.0,7.0,66,0.00,,,0.00,0.000000,,2013-08-09 09:32:00,
2013-08-09 03:43:00,54.0,43.0,-100.00,NE,45,2.0,7.0,66,0.00,,,0.00,0.000000,,2013-08-09 09:43:00,
2013-08-09 04:12:00,55.0,43.0,-100.00,NE,50,3.0,9.0,64,0.00,,,0.00,0.000000,,2013-08-09 10:12:00,
2013-08-09 04:22:00,55.0,43.0,-100.00,NE,50,3.0,9.0,64,0.00,,,0.00,0.000000,,2013-08-09 10:22:00,
2013-08-09 04:32:00,55.0,43.0,-100.00,NE,50,3.0,9.0,64,0.00,,,0.00,0.000000,,2013-08-09 10:32:00,
2013-08-09 04:43:00,55.0,43.0,-100.00,NE,50,3.0,9.0,64,0.00,,,0.00,0.000000,,2013-08-09 10:43:00,
2013-08-09 05:22:00,55.0,43.0,-100.00,NE,34,1.0,8.0,64,0.00,,,0.00,0.000000,,2013-08-09 11:22:00,
2013-08-09 05:33:00,55.0,43.0,-100.00,NE,34,1.0,8.0,64,0.00,,,0.00,0.000000,,2013-08-09 11:33:00,
2013-08-09 05:42:00,55.0,43.0,-100.00,NE,34,1.0,8.0,64,0.00,,,0.00,0.000000,,2013-08-09 11:42:00,
2013-08-09 06:12:00,56.0,43.0,-100.00,NE,44,1.0,7.0,62,0.00,,,0.00,0.000000,,2013-08-09 12:12:00,
2013-08-09 06:22:00,56.0,43.0,-100.00,NE,44,1.0,7.0,62,0.00,,,0.00,0.000000,,2013-08-09 12:22:00,
2013-08-09 06:32:00,56.0,43.0,-100.00,NE,44,1.0,7.0,62,0.00,,,0.00,0.000000,,2013-08-09 12:32:00,
2013-08-09 06:43:00,56.0,43.0,-100.00,NE,44,1.0,7.0,62,0.00,,,0.00,0.000000,,2013-08-09 12:43:00,
2013-08-09 07:12:00,54.0,44.0,-100.00,NE,35,0.0,4.0,70,0.00,,,0.00,5.000000,,2013-08-09 13:12:00,
2013-08-09 07:23:00,54.0,44.0,-100.00,NE,35,0.0,4.0,70,0.00,,,0.00,5.000000,,2013-08-09 13:23:00,
2013-08-09 07:32:00,54.0,44.0,-100.00,NE,35,0.0,4.0,70,0.00,,,0.00,5.000000,,2013-08-09 13:32:00,
2013-08-09 07:43:00,54.0,44.0,-100.00,NE,35,0.0,4.0,70,0.00,,,0.00,5.000000,,2013-08-09 13:43:00,
2013-08-09 08:22:00,56.0,46.0,-100.00,ENE,74,2.0,4.0,69,0.00,,,0.00,68.000000,,2013-08-09 14:22:00,
2013-08-09 08:33:00,56.0,46.0,-100.00,ENE,74,2.0,4.0,69,0.00,,,0.00,68.000000,,2013-08-09 14:33:00,
2013-08-09 08:43:00,56.0,46.0,-100.00,ENE,74,2.0,4.0,69,0.00,,,0.00,68.000000,,2013-08-09 14:43:00,
2013-08-09 09:11:00,57.0,49.0,-100.00,NE,55,0.0,5.0,74,0.00,,,0.00,41.000000,,2013-08-09 15:11:00,
2013-08-09 09:22:00,57.0,49.0,-100.00,NE,55,0.0,5.0,74,0.00,,,0.00,41.000000,,2013-08-09 15:22:00,
2013-08-09 09:32:00,57.0,49.0,-100.00,NE,55,0.0,5.0,74,0.00,,,0.00,41.000000,,2013-08-09 15:32:00,
2013-08-09 09:44:00,57.0,49.0,-100.00,NE,55,0.0,5.0,74,0.00,,,0.00,41.000000,,2013-08-09 15:44:00,
2013-08-09 10:22:00,57.0,48.0,-100.00,ENE,63,2.0,9.0,71,0.00,,,0.00,37.000000,,2013-08-09 16:22:00,
2013-08-09 10:32:00,57.0,48.0,-100.00,ENE,63,2.0,9.0,71,0.00,,,0.00,37.000000,,2013-08-09 16:32:00,
2013-08-09 10:43:00,57.0,48.0,-100.00,ENE,63,2.0,9.0,71,0.00,,,0.00,37.000000,,2013-08-09 16:43:00,
2013-08-09 11:11:00,66.0,50.0,-100.00,NE,39,3.0,8.0,56,0.00,,,0.00,348.000000,,2013-08-09 17:11:00,
2013-08-09 11:22:00,66.0,50.0,-100.00,NE,39,3.0,8.0,56,0.00,,,0.00,348.000000,,2013-08-09 17:22:00,
2013-08-09 11:32:00,66.0,50.0,-100.00,NE,39,3.0,8.0,56,0.00,,,0.00,348.000000,,2013-08-09 17:32:00,
2013-08-09 11:43:00,66.0,50.0,-100.00,NE,39,3.0,8.0,56,0.00,,,0.00,348.000000,,2013-08-09 17:43:00,
2013-08-09 12:11:00,72.0,46.0,-100.00,ENE,60,5.0,11.0,40,0.00,,,0.00,727.000000,,2013-08-09 18:11:00,
2013-08-09 12:22:00,72.0,46.0,-100.00,ENE,60,5.0,11.0,40,0.00,,,0.00,727.000000,,2013-08-09 18:22:00,
2013-08-09 12:32:00,72.0,46.0,-100.00,ENE,60,5.0,11.0,40,0.00,,,0.00,727.000000,,2013-08-09 18:32:00,
2013-08-09 12:43:00,72.0,46.0,-100.00,ENE,60,5.0,11.0,40,0.00,,,0.00,727.000000,,2013-08-09 18:43:00,
2013-08-09 13:11:00,74.0,46.0,-100.00,NE,52,4.0,13.0,37,0.00,,,0.00,625.000000,,2013-08-09 19:11:00,
2013-08-09 13:22:00,74.0,46.0,-100.00,NE,52,4.0,13.0,37,0.00,,,0.00,625.000000,,2013-08-09 19:22:00,
2013-08-09 13:32:00,74.0,46.0,-100.00,NE,52,4.0,13.0,37,0.00,,,0.00,625.000000,,2013-08-09 19:32:00,
2013-08-09 13:43:00,74.0,46.0,-100.00,NE,52,4.0,13.0,37,0.00,,,0.00,625.000000,,2013-08-09 19:43:00,
2013-08-09 14:11:00,79.0,45.0,-100.00,North,350,3.0,8.0,30,0.00,,,0.00,896.000000,,2013-08-09 20:11:00,
2013-08-09 14:22:00,79.0,45.0,-100.00,North,350,3.0,8.0,30,0.00,,,0.00,896.000000,,2013-08-09 20:22:00,
2013-08-09 14:32:00,79.0,45.0,-100.00,North,350,3.0,8.0,30,0.00,,,0.00,896.000000,,2013-08-09 20:32:00,
2013-08-09 14:43:00,79.0,45.0,-100.00,North,350,3.0,8.0,30,0.00,,,0.00,896.000000,,2013-08-09 20:43:00,
2013-08-09 15:12:00,81.0,44.0,-100.00,NNE,15,4.0,9.0,27,0.00,,,0.00,892.000000,,2013-08-09 21:12:00,
2013-08-09 15:22:00,81.0,44.0,-100.00,NNE,15,4.0,9.0,27,0.00,,,0.00,892.000000,,2013-08-09 21:22:00,
2013-08-09 15:32:00,81.0,44.0,-100.00,NNE,15,4.0,9.0,27,0.00,,,0.00,892.000000,,2013-08-09 21:32:00,
2013-08-09 15:43:00,81.0,44.0,-100.00,NNE,15,4.0,9.0,27,0.00,,,0.00,892.000000,,2013-08-09 21:43:00,
2013-08-09 16:11:00,82.0,37.0,-100.00,West,269,3.0,10.0,20,0.00,,,0.00,759.000000,,2013-08-09 22:11:00,
2013-08-09 16:22:00,82.0,37.0,-100.00,West,269,3.0,10.0,20,0.00,,,0.00,759.000000,,2013-08-09 22:22:00,
2013-08-09 16:32:00,82.0,37.0,-100.00,West,269,3.0,10.0,20,0.00,,,0.00,759.000000,,2013-08-09 22:32:00,
2013-08-09 16:42:00,82.0,37.0,-100.00,West,269,3.0,10.0,20,0.00,,,0.00,759.000000,,2013-08-09 22:42:00,
2013-08-09 17:11:00,81.0,35.0,-100.00,WNW,284,4.0,14.0,19,0.00,,,0.00,559.000000,,2013-08-09 23:11:00,
2013-08-09 17:21:00,81.0,35.0,-100.00,WNW,284,4.0,14.0,19,0.00,,,0.00,559.000000,,2013-08-09 23:21:00,
2013-08-09 17:32:00,81.0,35.0,-100.00,WNW,284,4.0,14.0,19,0.00,,,0.00,559.000000,,2013-08-09 23:32:00,
2013-08-09 17:43:00,81.0,35.0,-100.00,WNW,284,4.0,14.0,19,0.00,,,0.00,559.000000,,2013-08-09 23:43:00,
2013-08-09 18:11:00,81.0,31.0,-100.00,West,276,4.0,12.0,16,0.00,,,0.00,569.000000,,2013-08-10 00:11:00,
2013-08-09 18:22:00,81.0,31.0,-100.00,West,276,4.0,12.0,16,0.00,,,0.00,569.000000,,2013-08-10 00:22:00,
2013-08-09 18:33:00,81.0,31.0,-100.00,West,276,4.0,12.0,16,0.00,,,0.00,569.000000,,2013-08-10 00:33:00,
2013-08-09 18:43:00,81.0,31.0,-100.00,West,276,4.0,12.0,16,0.00,,,0.00,569.000000,,2013-08-10 00:43:00,
2013-08-09 19:11:00,79.0,30.0,-100.00,SW,234,4.0,8.0,17,0.00,,,0.00,273.000000,,2013-08-10 01:11:00,
2013-08-09 19:21:00,79.0,30.0,-100.00,SW,234,4.0,8.0,17,0.00,,,0.00,273.000000,,2013-08-10 01:21:00,
2013-08-09 19:42:00,79.0,30.0,-100.00,SW,234,4.0,8.0,17,0.00,,,0.00,273.000000,,2013-08-10 01:42:00,
2013-08-09 21:11:00,65.0,42.0,-100.00,NNE,22,1.0,4.0,43,0.00,,,0.00,19.000000,,2013-08-10 03:11:00,
2013-08-09 21:21:00,65.0,42.0,-100.00,NNE,22,1.0,4.0,43,0.00,,,0.00,19.000000,,2013-08-10 03:21:00,
2013-08-09 21:32:00,65.0,42.0,-100.00,NNE,22,1.0,4.0,43,0.00,,,0.00,19.000000,,2013-08-10 03:32:00,
2013-08-09 21:42:00,65.0,42.0,-100.00,NNE,22,1.0,4.0,43,0.00,,,0.00,19.000000,,2013-08-10 03:42:00,
2013-08-09 22:12:00,63.0,44.0,-100.00,NE,38,2.0,6.0,49,0.00,,,0.00,0.000000,,2013-08-10 04:12:00,
2013-08-09 22:22:00,63.0,44.0,-100.00,NE,38,2.0,6.0,49,0.00,,,0.00,0.000000,,2013-08-10 04:22:00,
2013-08-09 22:32:00,63.0,44.0,-100.00,NE,38,2.0,6.0,49,0.00,,,0.00,0.000000,,2013-08-10 04:32:00,
2013-08-09 22:42:00,63.0,44.0,-100.00,NE,38,2.0,6.0,49,0.00,,,0.00,0.000000,,2013-08-10 04:42:00,
2013-08-09 23:11:00,63.0,44.0,-100.00,ENE,64,3.0,7.0,49,0.00,,,0.00,0.000000,,2013-08-10 05:11:00,
2013-08-09 23:22:00,63.0,44.0,-100.00,ENE,64,3.0,7.0,49,0.00,,,0.00,0.000000,,2013-08-10 05:22:00,
2013-08-09 23:32:00,63.0,44.0,-100.00,ENE,64,3.0,7.0,49,0.00,,,0.00,0.000000,,2013-08-10 05:32:00,
2013-08-09 23:42:00,63.0,44.0,-100.00,ENE,64,3.0,7.0,49,0.00,,,0.00,0.000000,,2013-08-10 05:42:00,